STARLINK-4409, 53203

Orbit data source: Space-Track

STARLINK-4409, 53203 is a payload satellite owned by SpaceX/Seattle (US) in SSO that was launched on Fri, 22 Jul 2022 UTC via an FALCON 9 launch vehicle from the Air Force Western Test Range (AFWTR). Payload-class satellites include a variety of spacecraft equipped with specific instruments for various scientific and technological missions. These include communications satellites like Starlink; space stations such as the ISS; scientific satellites like the Hubble; Earth observation satellites from companies like Planet Labs, Umbra, and HawkEye 360; GPS; miniature CubeSats for education and research; and military/defense satellites.

Loading next visibility...
Identifier
53203, 2022-084Q
Orbit
SSO
Country
Flag of USUS
Related business
Manufacturer
SpaceX/Seattle
Mission
Operational Commercial Communications
Bus & Motor
STARLINK, Unknown motor
Mass
297 kg wet, ~275 kg dry
Launch date (UTC)
2022-07-22 (4 years ago)
Launch vehicle
FALCON 9
Launch site
Air Force Western Test Range (AFWTR)
Object type
Payload
Rocket body
Debris
Shape & HBR
Box + 1 Pan, 10.1 m
Radar Cross Section
13.562 m², Large (>1 m²)

Expand to show TLE details & history
Last TLE update: 3 days ago

TLE from 3 days ago
0 STARLINK-4409
1 53203U 22084Q   26170.72594258 -.00001482  00000-0 -98744-4 0  9990
2 53203  97.3387 230.7340 0001298 105.6510 254.4860 15.05662151214737
Epoch: 2026-06-19T17:25Z
TLE epoch observation values (Epoch: 2026-06-19T17:25:21.438Z)
Latitude
-0.00013°
Longitude
61.4439°
Altitude
552.787 km
Speed
7.585 km/s
True Right ascension
15h 22m 56s
True Declination
0° 00' 00"
Sunlit
Object was in full shadow at epoch
Visualization orbit readout
Latitude
Unknown
Longitude
Unknown
Altitude
Unknown
Speed
Unknown
Apparent Right ascension
Unknown
Apparent Declination
Unknown
Sunlit
N/A
Visualization observer readout
Local Sidereal Time
21:27:31
Azimuth
Unknown
Elevation
Unknown
Doppler factor
Unknown
Orbital elements
Apogee altitude
547.355 km
Perigee altitude
545.557 km
Semi-major axis
6,924.593 km
Eccentricity
0.00013
Inclination
97.3387°
RAAN
230.734°
Arg. of periapsis
105.651°
True anomaly
254.47167°
Mean anomaly
254.486°
Eccentric anomaly
254.47883°
Mean motion
3.76662 °/min
Orbital period
95.58 mins
BSTAR
-0.000098744
Loading maneuver chart data...
Computing Atmospheric mass density...
Loading historical data...
Loading historical data...
Loading historical data...
Loading historical data...
Loading historical data...
Loading historical data...
Loading historical data...

Documentation

Showing up to 5 results
|